| time (UTC) | temp F | wind direction | speed MPH | gust MPH | rain 1hr in | rain 24hr in | rain mn in | humidity % | barometer mb |
| 20260506221013 | 59 | 271 | 16.0 | 27.0 | 0.00 | 0.00 | 0.00 | 77 | 1021.3 |
| 20260506215513 | 61 | 250 | 6.0 | 15.0 | 0.00 | 0.00 | 0.00 | 75 | 1021.3 |
| 20260506214008 | 61 | 250 | 6.0 | 15.0 | 0.00 | 0.00 | 0.00 | 75 | 1021.3 |
| 20260506212505 | 61 | 259 | 12.0 | 27.0 | 0.00 | 0.00 | 0.00 | 75 | 1021.0 |
| 20260506211000 | 61 | 259 | 12.0 | 27.0 | 0.00 | 0.00 | 0.00 | 75 | 1021.0 |
| 20260506205455 | 61 | 259 | 12.0 | 27.0 | 0.00 | 0.00 | 0.00 | 75 | 1021.0 |
| 20260506203952 | 61 | 241 | 7.0 | 18.0 | 0.00 | 0.00 | 0.00 | 75 | 1021.0 |
| 20260506202449 | 60 | 257 | 9.0 | 28.0 | 0.00 | 0.00 | 0.00 | 76 | 1021.0 |
| 20260506200946 | 61 | 256 | 8.0 | 24.0 | 0.00 | 0.00 | 0.00 | 74 | 1021.0 |
| 20260506195441 | 60 | 261 | 10.0 | 26.0 | 0.00 | 0.00 | 0.00 | 76 | 1020.7 |
| 20260506193938 | 59 | 267 | 12.0 | 28.0 | 0.00 | 0.00 | 0.00 | 77 | 1021.0 |
| 20260506192435 | 59 | 267 | 12.0 | 28.0 | 0.00 | 0.00 | 0.00 | 77 | 1021.0 |
| 20260506190931 | 59 | 267 | 12.0 | 28.0 | 0.00 | 0.00 | 0.00 | 77 | 1021.0 |
| 20260506182836 | 58 | 267 | 9.0 | 21.0 | 0.00 | 0.00 | 0.00 | 82 | 1021.7 |
| 20260506181334 | 58 | 267 | 9.0 | 21.0 | 0.00 | 0.00 | 0.00 | 82 | 1021.7 |
| 20260506175829 | 57 | 265 | 8.0 | 15.0 | 0.00 | 0.00 | 0.00 | 84 | 1021.7 |
| 20260506174326 | 57 | 276 | 12.0 | 19.0 | 0.00 | 0.00 | 0.00 | 83 | 1021.7 |
| 20260506172824 | 57 | 272 | 9.0 | 14.0 | 0.00 | 0.00 | 0.00 | 85 | 1021.7 |
| 20260506171320 | 57 | 272 | 9.0 | 14.0 | 0.00 | 0.00 | 0.00 | 85 | 1021.7 |
| 20260506165819 | 57 | 221 | 3.0 | 8.0 | 0.00 | 0.00 | 0.00 | 86 | 1021.7 |
| 20260506164315 | 55 | 242 | 2.0 | 5.0 | 0.00 | 0.00 | 0.00 | 89 | 1021.7 |
| 20260506162815 | 55 | 271 | 4.0 | 10.0 | 0.00 | 0.00 | 0.00 | 90 | 1022.0 |
| 20260506161313 | 53 | 246 | 3.0 | 7.0 | 0.00 | 0.00 | 0.00 | 94 | 1022.0 |
| 20260506155116 | 53 | 259 | 3.0 | 7.0 | 0.00 | 0.00 | 0.00 | 94 | 1022.0 |
| 20260506152548 | 53 | 259 | 3.0 | 7.0 | 0.00 | 0.00 | 0.00 | 94 | 1022.0 |
| 20260506151046 | 53 | 259 | 3.0 | 7.0 | 0.00 | 0.00 | 0.00 | 94 | 1022.0 |
| 20260506143959 | 53 | 276 | 4.0 | 10.0 | 0.00 | 0.00 | 0.00 | 94 | 1021.7 |
| 20260506142458 | 53 | 276 | 4.0 | 10.0 | 0.00 | 0.00 | 0.00 | 94 | 1021.7 |
| 20260506140957 | 53 | 276 | 4.0 | 10.0 | 0.00 | 0.00 | 0.00 | 94 | 1021.7 |
| 20260506135454 | 53 | 280 | 3.0 | 6.0 | 0.00 | 0.00 | 0.00 | 94 | 1021.3 |
| 20260506133949 | 53 | 280 | 3.0 | 6.0 | 0.00 | 0.00 | 0.00 | 94 | 1021.3 |
| 20260506132445 | 53 | 280 | 3.0 | 6.0 | 0.00 | 0.00 | 0.00 | 94 | 1021.3 |
| 20260506130941 | 53 | 29 | 0.0 | 2.0 | 0.00 | 0.00 | 0.00 | 95 | 1021.3 |
| 20260506125440 | 53 | 29 | 0.0 | 2.0 | 0.00 | 0.00 | 0.00 | 95 | 1021.3 |
| 20260506123939 | 53 | 91 | 0.0 | 3.0 | 0.00 | 0.00 | 0.00 | 95 | 1021.3 |
| 20260506122436 | 53 | 86 | 0.0 | 2.0 | 0.00 | 0.00 | 0.00 | 95 | 1021.0 |
| 20260506120934 | 53 | 347 | 0.0 | 2.0 | 0.00 | 0.00 | 0.00 | 94 | 1021.0 |
| 20260506115432 | 53 | 88 | 0.0 | 0.0 | 0.00 | 0.00 | 0.00 | 93 | 1020.7 |
| 20260506113932 | 53 | 88 | 0.0 | 0.0 | 0.00 | 0.00 | 0.00 | 93 | 1020.7 |
| 20260506112430 | 53 | 88 | 0.0 | 0.0 | 0.00 | 0.00 | 0.00 | 93 | 1020.7 |
| 20260506104045 | 53 | 88 | 0.0 | 0.0 | 0.00 | 0.00 | 0.00 | 92 | 1020.3 |
| 20260506102543 | 53 | 88 | 0.0 | 0.0 | 0.00 | 0.00 | 0.00 | 92 | 1020.3 |
| 20260506101039 | 53 | 88 | 0.0 | 0.0 | 0.00 | 0.00 | 0.00 | 91 | 1020.3 |
| 20260506095534 | 54 | 88 | 0.0 | 0.0 | 0.00 | 0.00 | 0.00 | 90 | 1020.3 |
| 20260506094031 | 54 | 63 | 1.0 | 3.0 | 0.00 | 0.00 | 0.00 | 91 | 1019.9 |
| 20260506092530 | 54 | 63 | 1.0 | 3.0 | 0.00 | 0.00 | 0.00 | 91 | 1019.9 |
| 20260506091027 | 53 | 95 | 1.0 | 3.0 | 0.00 | 0.00 | 0.00 | 93 | 1019.9 |
| 20260506085524 | 53 | 81 | 1.0 | 3.0 | 0.00 | 0.00 | 0.00 | 94 | 1019.9 |
| 20260506084019 | 52 | 288 | 0.0 | 0.0 | 0.00 | 0.00 | 0.00 | 94 | 1019.9 |
| 20260506082517 | 52 | 288 | 0.0 | 0.0 | 0.00 | 0.00 | 0.00 | 94 | 1019.9 |
| 20260506081014 | 53 | 288 | 0.0 | 0.0 | 0.00 | 0.00 | 0.00 | 94 | 1019.9 |
| 20260506072506 | 51 | 288 | 0.0 | 0.0 | 0.00 | 0.00 | 0.00 | 96 | 1019.5 |
| 20260506071005 | 51 | 288 | 0.0 | 0.0 | 0.00 | 0.00 | 0.00 | 96 | 1019.5 |
| 20260506062456 | 52 | 63 | 0.0 | 0.0 | 0.00 | 0.00 | 0.00 | 92 | 1019.2 |
| 20260506060953 | 52 | 63 | 0.0 | 0.0 | 0.00 | 0.00 | 0.00 | 92 | 1019.2 |
| 20260506050937 | 55 | 258 | 0.0 | 0.0 | 0.00 | 0.00 | 0.00 | 89 | 1019.2 |
| 20260506043948 | 57 | 131 | 1.0 | 6.0 | 0.00 | 0.00 | 0.00 | 84 | 1018.5 |
| 20260506042448 | 57 | 131 | 1.0 | 6.0 | 0.00 | 0.00 | 0.00 | 84 | 1018.5 |
| 20260506040946 | 57 | 131 | 1.0 | 6.0 | 0.00 | 0.00 | 0.00 | 84 | 1018.5 |
| 20260506035443 | 57 | 236 | 1.0 | 4.0 | 0.00 | 0.00 | 0.00 | 83 | 1018.2 |
| 20260506033939 | 57 | 243 | 4.0 | 11.0 | 0.00 | 0.00 | 0.00 | 83 | 1017.8 |
| 20260506032437 | 57 | 243 | 4.0 | 11.0 | 0.00 | 0.00 | 0.00 | 83 | 1017.8 |
| 20260506030934 | 57 | 243 | 4.0 | 11.0 | 0.00 | 0.00 | 0.00 | 83 | 1017.8 |
| 20260506023943 | 60 | 239 | 5.0 | 15.0 | 0.00 | 0.00 | 0.00 | 76 | 1017.2 |
| 20260506022441 | 60 | 239 | 5.0 | 15.0 | 0.00 | 0.00 | 0.00 | 76 | 1017.2 |
| 20260506020938 | 60 | 239 | 5.0 | 15.0 | 0.00 | 0.00 | 0.00 | 76 | 1017.2 |
| 20260506015437 | 60 | 245 | 6.0 | 13.0 | 0.00 | 0.00 | 0.00 | 76 | 1016.7 |
| 20260506013933 | 60 | 247 | 7.0 | 22.0 | 0.00 | 0.00 | 0.00 | 75 | 1016.7 |
| 20260506003943 | 62 | 253 | 10.0 | 30.0 | 0.00 | 0.00 | 0.00 | 73 | 1016.1 |
| 20260506002438 | 62 | 253 | 10.0 | 30.0 | 0.00 | 0.00 | 0.00 | 73 | 1016.1 |
| 20260506000934 | 62 | 253 | 10.0 | 30.0 | 0.00 | 0.00 | 0.00 | 73 | 1016.1 |
| 20260505235433 | 62 | 254 | 8.0 | 27.0 | 0.00 | 0.00 | 0.00 | 71 | 1016.1 |
| 20260505233929 | 62 | 254 | 8.0 | 27.0 | 0.00 | 0.00 | 0.00 | 71 | 1016.1 |
| 20260505223959 | 62 | 243 | 10.0 | 26.0 | 0.00 | 0.00 | 0.00 | 72 | 1016.7 |
| 20260505222454 | 62 | 243 | 10.0 | 26.0 | 0.00 | 0.00 | 0.00 | 72 | 1016.7 |